Flag for Germany Weather past 2 weeks in Neuwied, Rhineland-Palatinate, Germany

Now
39 °F

Passing clouds.


Feels Like: 32 °F
Forecast: 41 / 52 °F
Wind: 10 mph from Northwest

Location: Buechel

Current Time: Mar 30, 2015 at 6:32:25 AM

Latest Report: Mar 30, 2015 at 5:20 AM


Visibility: 6 mi

Pressure: 29.47 "Hg

Humidity: 87%

Dew point: 36 °F

Location of NeuwiedLocation

Historic Weather in Neuwied — Graph

°F

Neuwied temperature yesterday

Maximum temperature yesterday: 48 °F (at 12:20 AM)
Minimum temperature yesterday: 43 °F (at 11:20 PM)
Average temperature yesterday: 46 °F

Past Weeks' High & Low Weather Summary

 TemperatureHumidityPressure
High61 °F (Mar 18, 2:20 PM)100% (Mar 15, 4:20 AM)30.30 "Hg (Mar 15, 4:20 AM)
Low27 °F (Mar 23, 4:20 AM)39% (Mar 18, 2:20 PM)29.39 "Hg (Mar 29, 8:20 PM)
Average41 °F81%30.01 "Hg
* Reported Mar 15 4:20 AM — Mar 30 5:20 AM, Neuwied, Weather by CustomWeather, © 2015

Note: Actual official high and low records may vary slightly from our data, if they occured in-between our weather recording intervals... More about our weather records

Advertising

Neuwied weather history for previous 24 hours

 ConditionsComfort  
Time TempWeatherWind HumidityBarometerVisibility
5:20 AM
Mon, Mar 30
39 °FPassing clouds.10 mph87%29.47 "Hg6 mi
4:20 AM39 °FMostly cloudy.16 mph87%29.47 "Hg6 mi
3:20 AM43 °FQuite cool.16 mph87%29.47 "Hg4 mi
2:20 AM41 °FQuite cool.13 mph93%29.47 "Hg6 mi
1:20 AM41 °FQuite cool.12 mph87%29.47 "HgN/A
12:20 AM41 °FQuite cool.14 mph87%29.47 "HgN/A
11:20 PM
Sun, Mar 29
43 °FQuite cool.22 mph81%29.47 "Hg5 mi
10:20 PM46 °FCool.23 mph82%29.42 "Hg5 mi
9:20 PM48 °FCool.24 mph82%29.39 "Hg2 mi
8:20 PM48 °FCool.22 mph94%29.39 "Hg2 mi
7:20 PM48 °FCool.22 mph94%29.42 "Hg2 mi
6:20 PM48 °FCool.17 mph94%29.45 "Hg1 mi
5:20 PM48 °FCool.22 mph94%29.45 "Hg1 mi
4:20 PM46 °FCool.20 mph100%29.47 "Hg1 mi
3:20 PM46 °FCool.20 mph93%29.53 "Hg1 mi
2:20 PM46 °FCool.18 mph93%29.59 "Hg1 mi
1:20 PM46 °FCool.15 mph93%29.65 "Hg2 mi
12:20 PM45 °FQuite cool.16 mph100%29.65 "Hg2 mi
11:20 AM45 °FQuite cool.15 mph93%29.68 "Hg2 mi
10:20 AM45 °FQuite cool.15 mph93%29.71 "Hg5 mi
9:20 AM45 °FQuite cool.16 mph87%29.74 "Hg5 mi
8:20 AM45 °FQuite cool.14 mph87%29.74 "Hg6 mi
7:20 AM46 °FCool.15 mph87%29.77 "Hg6 mi
6:20 AM46 °FCool.15 mph87%29.77 "Hg6 mi
Weather by CustomWeather, © 2015

See weather overviewHow to use our weather pages